This is the latest recevied weather packets stored in our database for station/object WE1C. If no packets are shown the sender has not sent any weather packets the latest 10 day(s).
| Time | Temp. | Humidity | Pressure | Rain* | Wind** | Luminosity | Snow |
|---|---|---|---|---|---|---|---|
| 1788452443 | 24.44° C | 85% | 1041.8 hPa | 0 mm | - | 419 W/m² | - |
| 1788452138 | 24.44° C | 87% | 1042 hPa | 0 mm | - | 564 W/m² | - |
| 1788451834 | 25° C | 87% | 1042 hPa | 0 mm | - | 727 W/m² | - |
| 1788451532 | 24.44° C | 87% | 1042 hPa | 0 mm | - | 774 W/m² | - |
| 1788451227 | 24.44° C | 87% | 1042.2 hPa | 0 mm | - | 737 W/m² | - |
| 1788450926 | 23.89° C | 89% | 1041.9 hPa | 0 mm | - | 757 W/m² | - |
| 1788450622 | 23.89° C | 91% | 1041.9 hPa | 0 mm | - | 619 W/m² | - |
| 1788450318 | 23.89° C | 91% | 1042 hPa | 0 mm | - | 765 W/m² | - |
| 1788450014 | 23.33° C | 91% | 1042.1 hPa | 0 mm | - | 751 W/m² | - |
| 1788449709 | 22.78° C | 93% | 1042.1 hPa | 0 mm | - | 725 W/m² | - |
| 1788449405 | 22.78° C | 93% | 1042.3 hPa | 0 mm | - | 558 W/m² | - |
| 1788449100 | 22.78° C | 97% | 1042.5 hPa | 0 mm | - | 790 W/m² | - |
| 1788448797 | 22.22° C | 96% | 1042.5 hPa | 0 mm | - | 582 W/m² | - |
| 1788448490 | 22.22° C | 94% | 1042.7 hPa | 0 mm | - | 381 W/m² | - |
| 1788448186 | 21.11° C | 97% | 1042.5 hPa | 0 mm | - | 660 W/m² | - |
| 1788447885 | 20.56° C | 97% | 1042.6 hPa | 0 mm | - | 444 W/m² | - |
| 1788447580 | 20.56° C | 99% | 1042.5 hPa | 0 mm | - | 228 W/m² | - |
| 1788447275 | 20.56° C | 99% | 1042.7 hPa | 0 mm | - | 227 W/m² | - |
| 1788446970 | 20.56° C | 99% | 1042.8 hPa | 0 mm | - | 285 W/m² | - |
| 1788446669 | 20° C | 99% | 1042.6 hPa | 0 mm | - | 225 W/m² | - |
| 1788446365 | 20° C | 99% | 1042.7 hPa | 0 mm | - | 317 W/m² | - |
| 1788446062 | 20° C | 99% | 1042.6 hPa | 0 mm | - | 300 W/m² | - |
| 1788445757 | 20° C | 99% | 1042.8 hPa | 0 mm | - | 322 W/m² | - |
| 1788445453 | 20° C | 99% | 1042.8 hPa | 0 mm | - | 241 W/m² | - |
| 1788445149 | 20° C | 99% | 1043.1 hPa | 0 mm | - | 206 W/m² | - |
* Rain latest hour (hover to see other rain measurements)
** Current wind speed in m/s (hover to see current wind gust speed)